SCP
0 0 0 0 0 0 0 0 0 0 0 0 0 0 0 0 0 0 0 0 0 0 0 0 0 0 0 0 0 0 0 0 0 0 0 0 0 0 0 0 0 -0 0 0 0 0 0
0 0 0 0 0 0 0 0 0 0 0 0 0 0 0 0 0 0 0 0 0 0 0 0 0 0 0 0 0 0 0 0 0 0 0 0 0 0 0 0 0 0 0 0 0 0 0
0 0 0 0 0 0 0 0 0 0 0 0 0 0 0 0 0 0 0 0 0 0 0 0 0 0 0 0 0 0 0 0 0 0 0 0 0 0 0 0 0 0 0 0 0 0 0
0 0 0 0 0 0 0 0 0 0 0 0 0 0 0 0 0 0 0 0 0 0 0 0 0 0 0 0 0 0 0 0 0 0 0 0 0 0 0 0 0 0 0 0 0 0 0
0 0 0 0 0 0 0 0 0 0 0 0 0 0 0 0 0 0 0 0 0 0 0 0 0 0 0 0 0 0 0 0 0 0 0 0 0 0 0 0 0 0 0 0 0 0 0
0 0 0 0 0 0 0 0 0 0 0 0 0 0 0 0 0 0 0 0 0 0 0 0 0 0 0 0 0 0 0 0 0 0 0 0 0 0 0 0 0 0 0 0 0 0 0
0 0 0 0 0 0 0 0 0 0 0 0 0 0 0 0 0 0 0 0 0 0 0 0 0 0 0 0 0 0 0 0 0 0 0 0 0 0 0 0 0 0 0 0 0 0 0
0 0 0 0 0 0 0 0 0 0 0 0 0 0 0 0 0 0 0 0 0 0 0 0 0 0 0 0 0 0 0 0 0 0 0 0 0 0 0 0 0 0 0 0 0 0 0
0 0 0 0 0 0 0 0 0 0 0 0 0 0 0 0 0 0 0 0 0 0 0 0 0 0 0 0 0 0 0 0 0 0 0 0 0 0 0 0 0 0 0 0 0 0 0
0 0 0 0 0 0 0 0 0 0 0 0 0 0 0 0 0 0 0 0 0 0 -0 0 0 0 0 0 0 0 0 0 0 0 0 0 0 0 0 0 0 0 0 0 0 0 0
0 0 0 0 0 0 0 0 0 0 0 0 0 0 0 0 0 0 0 0 0 0 0 0 0 0 0 0 0 0 0 0 0 0 0 0 0 0 0 0 0 0 0 0 0 0 0
0 0 0 0 0 0 0 0 0 0 0 0 0 0 0 0 0 0 0 0 0 0 0 0 0 0 0 0 0 0 0 0 0 0 0 0 0 0 0 0 0 0 0 0 0 0 0
0 0 0 0 0 0 0 0 0 0 0 0 0 0 0 0 0 0 0 0 0 0 0 0 0 0 0 0 0 0 0 0 0 0 0 0 0 0 0 0 0 0 0 0 0 0 0
0 0 0 0 0 0 0 0 0 0 0 0 0 0 0 0 0 0 0 0 0 0 0 0 0 0 0 0 0 0 0 0 0 0 0 0 0 0 0 0 0 0 0 0 0 0 0
0 0 0 0 0 0 0 0 0 0 0 0 0 0 0 0 0 0 0 0 0 0 0 0 0 0 0 0 0 0 0 0 0 0 0 0 0 0 0 0 0 0 0 0 0 0 0
0 0 0 0 0 0 0 0 0 0 0 0 0 0 0 0 0 0 0 0 0 0 0 0 0 0 0 0 0 0 0 0 0 0 0 0 0 0 0 0 0 0 0 0 0 0 0
0 0 0 0 0 0 0 0 0 0 0 0 0 0 0 0 0 0 0 0 0 0 0 0 0 0 0 0 0 0 0 0 0 0 0 0 0 0 0 0 0 0 0 0 0 0 0
0 0 0 0 0 0 0 0 0 0 0 0 0 0 0 0 0 0 0 0 0 0 0 0 0 0 0 0 0 0 0 0 0 0 0 0 0 0 0 0 0 0 0 0 0 0 0
0 0 0 0 0 0 0 0 0 0 0 0 0 0 0 0 0 0 0 0 0 0 0 0 0 0 0 0 0 0 0 0 0 0 0 0 0 0 0 0 0 0 0 0 0 0 0
0 0 0 0 0 0 0 0 0 0 0 0 0 0 0 0 0 0 0 0 0 0 0 0 0 0 0 0 0 0 0 0 0 0 0 0 0 0 0 0 0 0 0 0 0 0 0
0 0 0 0 0 0 0 0 0 0 0 1 0 0 0 1 0 0 0 0 0 0 0 0 0 0 0 0 0 0 0 0 0 0 0 0 0 0 0 0 0 0 0 0 0 -0 0
0 0 0 0 0 0 0 0 0 0 0 0 0 0 0 0 0 0 0 0 0 0 0 0 0 0 0 0 0 0 0 0 0 0 0 0 0 0 0 0 0 0 0 0 0 0 0
0 0 0 0 0 0 0 0 0 0 0 1 0 0 0 0 0 0 0 0 0 0 0 0 0 0 0 0 0 0 0 0 0 0 0 0 0 0 0 0 0 0 0 0 0 0 0
0 0 0 0 0 0 0 0 0 0 0 0 0 0 0 0 0 0 0 0 0 0 0 0 0 0 0 0 0 0 0 0 -0 0 0 0 0 0 0 0 0 0 0 0 0 0 0
0 0 0 0 0 0 -0 0 0 -0 0 0 0 0 0 0 0 0 0 0 0 0 0 0 0 0 0 0 -0 -0 0 0 0 -0 0 0 0 0 0 0 0 0 0 0 0 0 0
0 0 0 0 0 0 0 -0 0 0 0 0 0 0 0 0 0 0 0 0 0 0 0 0 0 0 0 0 0 0 0 0 0 0 0 0 0 0 0 0 0 0 0 0 0 0 0
0 0 0 0 -0 0 -0 -0 0 0 0 0 0 0 0 0 0 0 0 0 0 0 0 0 0 0 0 0 0 0 0 0 0 0 0 0 0 0 0 0 0 0 0 0 0 0 0
0 0 0 -0 0 0 -0 0 -0 -0 -0 0 0 0 0 0 0 0 0 0 0 0 0 0 0 0 0 0 0 0 0 0 0 0 0 0 0 0 0 0 0 0 0 0 0 0 0
0 0 0 -0 0 0 0 0 0 0 0 0 0 0 0 0 0 0 0 0 0 0 0 0 0 0 0 0 0 0 0 0 0 0 0 0 0 0 0 0 0 0 0 0 0 0 0
Wind_Speed_500mb
17 16 16 16 22 26 26 25 25 25 23 24 24 25 26 26 26 27 28 30 30 31 36 33 19 14 12 15 24 18 18 19 18 15 15 15 18 18 22 14 16 24 21 14 16 14 19
22 17 18 19 21 23 25 26 29 34 31 28 26 27 29 31 31 30 30 31 33 32 33 29 20 15 15 28 10 20 23 22 18 17 16 18 16 17 20 19 19 11 18 22 20 23 25
26 27 28 27 27 21 20 23 26 29 31 36 35 32 31 32 33 35 34 35 35 33 32 24 18 15 20 29 8 22 29 24 21 17 17 17 15 16 6 18 26 21 23 24 28 29 24
20 20 19 21 26 28 25 27 27 27 30 30 34 40 37 34 34 37 35 36 34 33 28 21 14 10 18 20 25 28 31 24 20 16 12 13 13 15 16 10 16 19 23 22 8 11 17
20 20 21 23 23 23 23 27 31 33 34 35 35 37 42 36 34 37 38 37 35 31 24 17 8 13 22 21 33 32 36 30 23 17 12 11 10 17 11 20 21 22 23 16 12 18 16
19 19 20 22 23 25 26 27 27 28 30 34 38 39 40 41 40 38 37 34 31 26 21 17 16 12 28 18 23 37 37 29 29 21 15 20 16 17 20 22 23 16 19 19 16 11 17
19 19 21 22 21 21 24 26 29 31 33 35 36 38 42 40 39 39 35 24 13 9 18 27 12 27 5 14 21 36 43 38 31 31 28 28 19 27 29 28 31 27 25 29 26 12 15
23 24 25 27 27 27 28 30 32 33 34 36 39 40 41 37 34 32 23 12 9 15 27 39 53 52 39 18 21 34 47 42 39 36 35 20 30 34 27 16 19 25 31 32 27 10 15
27 28 29 30 31 33 36 37 39 43 45 47 47 44 40 32 23 15 11 9 17 13 20 41 58 61 56 51 40 45 61 61 44 37 38 36 16 6 24 24 26 29 31 31 29 21 26
27 30 31 33 34 38 39 40 44 48 50 52 51 47 45 38 5 8 1 11 19 11 13 24 18 20 50 41 34 52 64 59 34 40 38 30 42 24 19 27 23 28 26 22 24 17 16
23 22 26 30 34 38 45 48 50 52 55 53 53 47 35 30 26 11 15 16 13 6 16 19 18 4 13 46 18 47 54 66 45 37 28 18 23 26 32 37 30 27 1 9 17 21 28
31 33 33 32 34 35 35 37 38 40 40 39 46 47 38 22 21 20 20 11 3 11 26 9 13 15 17 47 26 9 49 59 44 39 33 39 2 21 26 10 19 10 9 13 16 16 18
38 38 37 38 41 43 41 38 38 40 44 48 49 46 38 28 14 23 14 6 11 19 4 13 11 15 29 29 41 25 39 48 30 34 42 37 41 19 18 15 10 20 14 6 9 10 8
45 43 44 47 46 48 48 46 41 43 47 50 47 46 41 27 22 19 7 10 27 22 46 2 2 10 20 23 38 34 37 45 54 39 20 35 22 48 37 40 18 35 29 10 10 8 4
37 43 48 53 51 50 51 54 51 51 48 45 44 35 32 22 18 18 20 24 23 28 32 41 34 39 32 31 18 38 46 47 51 54 32 23 25 11 13 32 31 22 26 26 26 22 13
44 47 50 49 50 57 60 55 54 53 47 44 33 36 43 26 17 24 21 46 36 33 31 18 29 27 31 37 27 24 30 29 50 52 45 22 16 20 12 16 21 19 21 14 13 8 12
48 50 54 58 56 54 55 54 54 51 50 43 30 27 28 26 21 28 24 31 40 65 57 16 28 36 39 40 40 39 23 30 38 39 42 38 24 15 18 28 33 19 24 15 10 17 9
52 55 53 53 60 60 58 56 57 50 44 49 34 9 28 30 34 33 27 37 29 57 47 36 13 38 42 44 38 42 50 38 34 26 45 52 23 23 33 3 33 39 35 35 14 17 15
53 58 59 59 63 63 61 59 58 51 45 49 28 41 34 40 20 22 35 44 53 45 41 40 39 35 30 37 43 33 39 29 10 20 25 26 27 26 27 13 13 23 40 40 38 22 24
50 54 58 61 61 64 65 63 63 61 54 52 25 8 39 44 48 42 41 45 44 49 38 18 28 44 40 38 36 21 32 10 14 17 28 15 30 47 34 29 28 25 43 46 40 27 31
51 55 56 59 63 64 65 64 64 65 63 54 51 11 19 11 34 44 41 37 34 36 37 35 29 32 43 48 50 38 51 46 29 17 11 13 26 46 47 51 18 26 42 53 53 51 30
53 59 61 62 68 66 65 68 67 66 69 71 55 14 35 44 42 41 37 42 46 37 30 25 30 35 35 28 32 41 31 31 15 15 9 13 29 38 43 46 23 27 32 44 55 50 49
56 59 62 66 67 68 71 75 75 69 64 74 71 66 24 29 34 32 32 43 36 33 35 38 36 35 38 36 46 52 47 34 18 7 8 9 24 33 36 39 23 29 45 39 42 47 47
56 60 64 66 72 74 72 77 81 72 73 73 57 47 25 17 32 34 33 37 38 38 34 33 40 36 46 40 39 49 51 50 40 30 20 12 14 18 26 28 32 28 36 42 43 46 42
57 63 65 68 76 81 80 82 60 60 59 79 74 54 31 14 33 32 39 35 33 40 37 43 52 57 46 37 14 14 24 22 31 40 38 23 12 10 18 25 23 11 8 42 37 40 41
59 62 65 68 72 74 68 45 41 47 43 67 71 55 15 8 21 45 33 40 29 28 28 43 47 48 43 15 12 16 18 25 21 20 43 38 29 14 11 34 41 24 21 28 27 25 33
62 63 66 68 73 70 53 37 29 16 19 33 31 35 21 11 27 25 27 28 38 32 22 35 33 35 45 17 22 24 34 15 30 41 20 25 12 23 26 21 28 19 28 35 28 9 34
62 66 66 66 67 62 52 27 23 13 14 22 24 28 39 17 40 34 45 50 40 38 22 31 19 25 11 18 18 24 23 35 40 48 44 29 25 14 22 31 39 19 26 28 15 2 3
65 67 64 61 67 64 52 32 26 22 20 23 28 27 34 33 38 25 53 63 60 60 49 37 27 17 9 10 13 14 18 17 40 36 41 35 21 25 29 37 10 46 23 55 9 5 4
Wind_Direction_500mb
339 340 339 347 354 356 352 351 347 344 340 336 329 326 324 322 322 322 321 320 319 322 323 319 306 272 251 244 252 267 188 187 194 191 197 211 228 235 251 260 249 245 265 245 244 247 257
296 300 315 322 331 335 335 337 338 338 335 330 326 324 321 321 320 320 320 317 316 317 319 315 300 262 229 257 238 231 201 197 196 203 213 214 230 251 283 263 248 331 278 263 248 254 261
292 291 293 297 307 316 324 330 331 336 337 334 328 321 318 317 319 320 321 316 314 313 314 309 291 249 248 236 243 208 191 195 203 208 228 222 228 216 283 255 244 268 271 265 245 246 242
1 4 350 325 301 299 303 302 307 315 321 325 327 327 318 322 324 317 317 316 311 309 307 301 285 232 253 251 225 199 198 202 204 214 227 217 207 230 240 290 253 254 255 268 151 200 222
358 356 356 358 355 349 332 317 308 304 302 306 312 321 324 326 323 318 316 316 312 305 294 287 282 217 259 249 220 203 199 202 198 205 198 197 207 236 204 239 248 221 270 233 256 190 254
347 351 348 346 347 348 346 343 341 339 324 308 302 304 308 320 325 325 320 320 313 295 280 272 243 238 233 235 212 200 198 200 194 201 203 212 225 233 218 229 244 293 234 259 260 198 230
325 328 332 338 338 341 342 342 340 343 340 336 329 317 306 306 317 334 329 350 302 258 241 235 286 233 305 203 185 199 192 190 204 209 225 204 229 230 242 227 257 297 284 279 282 280 271
309 313 320 323 326 329 333 333 334 334 334 334 332 329 325 322 309 329 347 347 2 302 294 261 257 250 246 228 218 206 193 194 201 214 224 206 238 249 259 270 264 256 266 268 276 307 275
297 299 305 310 313 316 322 324 325 326 327 326 327 325 326 328 326 346 360 7 338 321 265 275 241 235 231 223 227 203 194 202 206 223 224 232 261 19 254 228 243 244 256 270 285 307 279
312 305 299 298 301 306 311 315 319 323 324 324 323 321 324 332 14 333 7 327 347 320 276 255 201 238 220 210 234 224 201 202 221 229 230 241 250 228 228 234 233 260 255 256 278 286 283
320 328 318 313 306 304 303 303 305 309 313 318 322 326 318 329 315 329 279 296 325 299 286 60 147 212 201 191 151 207 202 207 220 217 217 227 214 231 236 245 243 261 204 244 264 273 285
305 309 306 305 305 305 306 304 304 309 312 315 319 320 325 321 309 299 285 290 288 230 245 173 147 183 183 204 210 135 193 212 226 237 226 244 214 204 227 236 237 112 212 239 258 264 262
289 289 288 293 296 299 302 302 303 306 307 309 313 316 308 303 270 285 279 323 222 232 158 206 206 192 212 200 216 186 196 197 201 211 229 223 228 212 189 184 191 198 215 249 235 200 261
282 283 283 286 285 288 293 297 298 300 304 307 310 304 304 296 281 275 263 221 232 254 231 288 43 225 238 216 217 204 204 210 216 217 240 218 222 208 201 209 198 206 209 197 234 245 263
300 297 292 288 286 282 282 283 287 291 299 299 309 305 289 289 257 225 202 219 234 248 275 288 284 263 256 240 233 213 226 221 215 219 213 224 227 203 183 207 216 184 223 245 275 263 275
293 294 294 292 287 284 283 281 282 279 284 289 297 291 276 260 221 197 221 234 243 260 296 319 266 245 233 234 213 219 219 226 226 213 224 249 239 183 179 193 224 234 180 178 217 234 246
290 286 287 291 284 281 282 286 282 279 268 271 277 279 274 188 180 204 230 237 252 259 273 287 267 260 259 246 229 224 239 219 215 214 199 227 245 170 155 211 188 182 201 220 224 229 283
300 296 286 286 286 280 278 282 283 281 274 251 244 241 228 199 208 216 235 241 250 257 268 277 260 275 274 282 277 249 242 245 210 212 196 209 228 211 210 154 229 205 213 214 213 218 233
297 297 289 287 282 282 277 276 277 278 269 257 231 226 227 203 224 233 241 250 241 255 259 263 263 241 269 298 288 269 261 258 203 195 194 205 230 239 186 196 212 226 216 227 225 256 255
305 302 297 295 290 283 281 274 273 270 271 262 262 227 213 215 227 235 227 241 252 254 259 254 276 279 270 257 268 272 274 54 352 261 233 265 219 223 221 221 176 202 210 215 223 224 232
303 304 302 299 295 289 284 274 269 266 267 262 248 230 197 205 217 226 238 246 250 250 247 237 250 261 261 266 260 263 265 273 320 310 274 185 232 241 244 257 235 208 204 204 211 218 226
301 300 302 305 300 295 286 281 276 270 261 248 243 229 226 235 216 216 216 231 237 239 251 245 246 248 257 272 284 276 308 280 243 299 276 196 249 253 249 243 229 237 225 212 214 221 231
303 302 300 304 303 296 293 286 279 270 252 234 233 240 266 215 209 214 201 214 228 242 256 255 264 268 267 257 268 272 291 287 238 269 315 291 231 245 249 230 220 251 222 211 216 220 225
300 301 301 303 303 299 294 286 282 262 249 238 227 221 212 230 214 210 216 237 235 236 249 262 264 262 254 277 282 264 277 266 239 235 236 284 295 271 244 246 211 255 215 202 209 212 217
299 300 302 302 303 305 300 290 274 264 244 224 225 212 194 206 209 204 217 223 235 244 245 253 263 261 268 271 274 282 261 238 215 231 228 224 266 269 232 207 250 165 217 189 202 228 220
296 300 301 303 304 304 300 289 272 250 232 218 200 189 147 136 207 221 223 224 231 241 251 254 264 258 259 261 231 227 240 225 215 216 212 205 223 243 295 233 230 247 201 197 192 257 212
294 297 300 303 302 312 294 293 308 223 229 216 211 196 174 177 241 221 221 235 242 254 262 271 272 253 237 219 238 243 246 253 232 209 179 187 179 207 231 243 242 254 150 153 185 270 204
291 296 297 299 300 299 288 276 274 274 237 221 223 217 205 228 252 236 243 246 241 241 244 255 279 245 215 217 228 229 246 244 246 244 194 188 172 183 214 236 243 145 152 185 200 87 319
287 290 293 296 298 302 284 245 255 248 234 234 238 233 231 230 258 260 253 247 245 244 253 260 240 252 236 230 207 232 242 260 237 238 218 201 194 197 194 217 285 187 208 211 251 278 206
Wind_Speed_850mb
17 16 16 16 22 26 26 25 25 25 23 24 24 25 26 26 26 27 28 30 30 31 36 33 19 14 12 15 24 18 18 19 18 15 15 15 18 18 22 14 16 24 21 14 16 14 19
22 17 18 19 21 23 25 26 29 34 31 28 26 27 29 31 31 30 30 31 33 32 33 29 20 15 15 28 10 20 23 22 18 17 16 18 16 17 20 19 19 11 18 22 20 23 25
26 27 28 27 27 21 20 23 26 29 31 36 35 32 31 32 33 35 34 35 35 33 32 24 18 15 20 29 8 22 29 24 21 17 17 17 15 16 6 18 26 21 23 24 28 29 24
20 20 19 21 26 28 25 27 27 27 30 30 34 40 37 34 34 37 35 36 34 33 28 21 14 10 18 20 25 28 31 24 20 16 12 13 13 15 16 10 16 19 23 22 8 11 17
20 20 21 23 23 23 23 27 31 33 34 35 35 37 42 36 34 37 38 37 35 31 24 17 8 13 22 21 33 32 36 30 23 17 12 11 10 17 11 20 21 22 23 16 12 18 16
19 19 20 22 23 25 26 27 27 28 30 34 38 39 40 41 40 38 37 34 31 26 21 17 16 12 28 18 23 37 37 29 29 21 15 20 16 17 20 22 23 16 19 19 16 11 17
19 19 21 22 21 21 24 26 29 31 33 35 36 38 42 40 39 39 35 24 13 9 18 27 12 27 5 14 21 36 43 38 31 31 28 28 19 27 29 28 31 27 25 29 26 12 15
23 24 25 27 27 27 28 30 32 33 34 36 39 40 41 37 34 32 23 12 9 15 27 39 53 52 39 18 21 34 47 42 39 36 35 20 30 34 27 16 19 25 31 32 27 10 15
27 28 29 30 31 33 36 37 39 43 45 47 47 44 40 32 23 15 11 9 17 13 20 41 58 61 56 51 40 45 61 61 44 37 38 36 16 6 24 24 26 29 31 31 29 21 26
27 30 31 33 34 38 39 40 44 48 50 52 51 47 45 38 5 8 1 11 19 11 13 24 18 20 50 41 34 52 64 59 34 40 38 30 42 24 19 27 23 28 26 22 24 17 16
23 22 26 30 34 38 45 48 50 52 55 53 53 47 35 30 26 11 15 16 13 6 16 19 18 4 13 46 18 47 54 66 45 37 28 18 23 26 32 37 30 27 1 9 17 21 28
31 33 33 32 34 35 35 37 38 40 40 39 46 47 38 22 21 20 20 11 3 11 26 9 13 15 17 47 26 9 49 59 44 39 33 39 2 21 26 10 19 10 9 13 16 16 18
38 38 37 38 41 43 41 38 38 40 44 48 49 46 38 28 14 23 14 6 11 19 4 13 11 15 29 29 41 25 39 48 30 34 42 37 41 19 18 15 10 20 14 6 9 10 8
45 43 44 47 46 48 48 46 41 43 47 50 47 46 41 27 22 19 7 10 27 22 46 2 2 10 20 23 38 34 37 45 54 39 20 35 22 48 37 40 18 35 29 10 10 8 4
37 43 48 53 51 50 51 54 51 51 48 45 44 35 32 22 18 18 20 24 23 28 32 41 34 39 32 31 18 38 46 47 51 54 32 23 25 11 13 32 31 22 26 26 26 22 13
44 47 50 49 50 57 60 55 54 53 47 44 33 36 43 26 17 24 21 46 36 33 31 18 29 27 31 37 27 24 30 29 50 52 45 22 16 20 12 16 21 19 21 14 13 8 12
48 50 54 58 56 54 55 54 54 51 50 43 30 27 28 26 21 28 24 31 40 65 57 16 28 36 39 40 40 39 23 30 38 39 42 38 24 15 18 28 33 19 24 15 10 17 9
52 55 53 53 60 60 58 56 57 50 44 49 34 9 28 30 34 33 27 37 29 57 47 36 13 38 42 44 38 42 50 38 34 26 45 52 23 23 33 3 33 39 35 35 14 17 15
53 58 59 59 63 63 61 59 58 51 45 49 28 41 34 40 20 22 35 44 53 45 41 40 39 35 30 37 43 33 39 29 10 20 25 26 27 26 27 13 13 23 40 40 38 22 24
50 54 58 61 61 64 65 63 63 61 54 52 25 8 39 44 48 42 41 45 44 49 38 18 28 44 40 38 36 21 32 10 14 17 28 15 30 47 34 29 28 25 43 46 40 27 31
51 55 56 59 63 64 65 64 64 65 63 54 51 11 19 11 34 44 41 37 34 36 37 35 29 32 43 48 50 38 51 46 29 17 11 13 26 46 47 51 18 26 42 53 53 51 30
53 59 61 62 68 66 65 68 67 66 69 71 55 14 35 44 42 41 37 42 46 37 30 25 30 35 35 28 32 41 31 31 15 15 9 13 29 38 43 46 23 27 32 44 55 50 49
56 59 62 66 67 68 71 75 75 69 64 74 71 66 24 29 34 32 32 43 36 33 35 38 36 35 38 36 46 52 47 34 18 7 8 9 24 33 36 39 23 29 45 39 42 47 47
56 60 64 66 72 74 72 77 81 72 73 73 57 47 25 17 32 34 33 37 38 38 34 33 40 36 46 40 39 49 51 50 40 30 20 12 14 18 26 28 32 28 36 42 43 46 42
57 63 65 68 76 81 80 82 60 60 59 79 74 54 31 14 33 32 39 35 33 40 37 43 52 57 46 37 14 14 24 22 31 40 38 23 12 10 18 25 23 11 8 42 37 40 41
59 62 65 68 72 74 68 45 41 47 43 67 71 55 15 8 21 45 33 40 29 28 28 43 47 48 43 15 12 16 18 25 21 20 43 38 29 14 11 34 41 24 21 28 27 25 33
62 63 66 68 73 70 53 37 29 16 19 33 31 35 21 11 27 25 27 28 38 32 22 35 33 35 45 17 22 24 34 15 30 41 20 25 12 23 26 21 28 19 28 35 28 9 34
62 66 66 66 67 62 52 27 23 13 14 22 24 28 39 17 40 34 45 50 40 38 22 31 19 25 11 18 18 24 23 35 40 48 44 29 25 14 22 31 39 19 26 28 15 2 3
65 67 64 61 67 64 52 32 26 22 20 23 28 27 34 33 38 25 53 63 60 60 49 37 27 17 9 10 13 14 18 17 40 36 41 35 21 25 29 37 10 46 23 55 9 5 4
Wind_Direction_850mb
339 340 339 347 354 356 352 351 347 344 340 336 329 326 324 322 322 322 321 320 319 322 323 319 306 272 251 244 252 267 188 187 194 191 197 211 228 235 251 260 249 245 265 245 244 247 257
296 300 315 322 331 335 335 337 338 338 335 330 326 324 321 321 320 320 320 317 316 317 319 315 300 262 229 257 238 231 201 197 196 203 213 214 230 251 283 263 248 331 278 263 248 254 261
292 291 293 297 307 316 324 330 331 336 337 334 328 321 318 317 319 320 321 316 314 313 314 309 291 249 248 236 243 208 191 195 203 208 228 222 228 216 283 255 244 268 271 265 245 246 242
1 4 350 325 301 299 303 302 307 315 321 325 327 327 318 322 324 317 317 316 311 309 307 301 285 232 253 251 225 199 198 202 204 214 227 217 207 230 240 290 253 254 255 268 151 200 222
358 356 356 358 355 349 332 317 308 304 302 306 312 321 324 326 323 318 316 316 312 305 294 287 282 217 259 249 220 203 199 202 198 205 198 197 207 236 204 239 248 221 270 233 256 190 254
347 351 348 346 347 348 346 343 341 339 324 308 302 304 308 320 325 325 320 320 313 295 280 272 243 238 233 235 212 200 198 200 194 201 203 212 225 233 218 229 244 293 234 259 260 198 230
325 328 332 338 338 341 342 342 340 343 340 336 329 317 306 306 317 334 329 350 302 258 241 235 286 233 305 203 185 199 192 190 204 209 225 204 229 230 242 227 257 297 284 279 282 280 271
309 313 320 323 326 329 333 333 334 334 334 334 332 329 325 322 309 329 347 347 2 302 294 261 257 250 246 228 218 206 193 194 201 214 224 206 238 249 259 270 264 256 266 268 276 307 275
297 299 305 310 313 316 322 324 325 326 327 326 327 325 326 328 326 346 360 7 338 321 265 275 241 235 231 223 227 203 194 202 206 223 224 232 261 19 254 228 243 244 256 270 285 307 279
312 305 299 298 301 306 311 315 319 323 324 324 323 321 324 332 14 333 7 327 347 320 276 255 201 238 220 210 234 224 201 202 221 229 230 241 250 228 228 234 233 260 255 256 278 286 283
320 328 318 313 306 304 303 303 305 309 313 318 322 326 318 329 315 329 279 296 325 299 286 60 147 212 201 191 151 207 202 207 220 217 217 227 214 231 236 245 243 261 204 244 264 273 285
305 309 306 305 305 305 306 304 304 309 312 315 319 320 325 321 309 299 285 290 288 230 245 173 147 183 183 204 210 135 193 212 226 237 226 244 214 204 227 236 237 112 212 239 258 264 262
289 289 288 293 296 299 302 302 303 306 307 309 313 316 308 303 270 285 279 323 222 232 158 206 206 192 212 200 216 186 196 197 201 211 229 223 228 212 189 184 191 198 215 249 235 200 261
282 283 283 286 285 288 293 297 298 300 304 307 310 304 304 296 281 275 263 221 232 254 231 288 43 225 238 216 217 204 204 210 216 217 240 218 222 208 201 209 198 206 209 197 234 245 263
300 297 292 288 286 282 282 283 287 291 299 299 309 305 289 289 257 225 202 219 234 248 275 288 284 263 256 240 233 213 226 221 215 219 213 224 227 203 183 207 216 184 223 245 275 263 275
293 294 294 292 287 284 283 281 282 279 284 289 297 291 276 260 221 197 221 234 243 260 296 319 266 245 233 234 213 219 219 226 226 213 224 249 239 183 179 193 224 234 180 178 217 234 246
290 286 287 291 284 281 282 286 282 279 268 271 277 279 274 188 180 204 230 237 252 259 273 287 267 260 259 246 229 224 239 219 215 214 199 227 245 170 155 211 188 182 201 220 224 229 283
300 296 286 286 286 280 278 282 283 281 274 251 244 241 228 199 208 216 235 241 250 257 268 277 260 275 274 282 277 249 242 245 210 212 196 209 228 211 210 154 229 205 213 214 213 218 233
297 297 289 287 282 282 277 276 277 278 269 257 231 226 227 203 224 233 241 250 241 255 259 263 263 241 269 298 288 269 261 258 203 195 194 205 230 239 186 196 212 226 216 227 225 256 255
305 302 297 295 290 283 281 274 273 270 271 262 262 227 213 215 227 235 227 241 252 254 259 254 276 279 270 257 268 272 274 54 352 261 233 265 219 223 221 221 176 202 210 215 223 224 232
303 304 302 299 295 289 284 274 269 266 267 262 248 230 197 205 217 226 238 246 250 250 247 237 250 261 261 266 260 263 265 273 320 310 274 185 232 241 244 257 235 208 204 204 211 218 226
301 300 302 305 300 295 286 281 276 270 261 248 243 229 226 235 216 216 216 231 237 239 251 245 246 248 257 272 284 276 308 280 243 299 276 196 249 253 249 243 229 237 225 212 214 221 231
303 302 300 304 303 296 293 286 279 270 252 234 233 240 266 215 209 214 201 214 228 242 256 255 264 268 267 257 268 272 291 287 238 269 315 291 231 245 249 230 220 251 222 211 216 220 225
300 301 301 303 303 299 294 286 282 262 249 238 227 221 212 230 214 210 216 237 235 236 249 262 264 262 254 277 282 264 277 266 239 235 236 284 295 271 244 246 211 255 215 202 209 212 217
299 300 302 302 303 305 300 290 274 264 244 224 225 212 194 206 209 204 217 223 235 244 245 253 263 261 268 271 274 282 261 238 215 231 228 224 266 269 232 207 250 165 217 189 202 228 220
296 300 301 303 304 304 300 289 272 250 232 218 200 189 147 136 207 221 223 224 231 241 251 254 264 258 259 261 231 227 240 225 215 216 212 205 223 243 295 233 230 247 201 197 192 257 212
294 297 300 303 302 312 294 293 308 223 229 216 211 196 174 177 241 221 221 235 242 254 262 271 272 253 237 219 238 243 246 253 232 209 179 187 179 207 231 243 242 254 150 153 185 270 204
291 296 297 299 300 299 288 276 274 274 237 221 223 217 205 228 252 236 243 246 241 241 244 255 279 245 215 217 228 229 246 244 246 244 194 188 172 183 214 236 243 145 152 185 200 87 319
287 290 293 296 298 302 284 245 255 248 234 234 238 233 231 230 258 260 253 247 245 244 253 260 240 252 236 230 207 232 242 260 237 238 218 201 194 197 194 217 285 187 208 211 251 278 206